Location: Newark
(8.3450°N, 9.6110°W)
Time: 14:46:47
(UTC+00:00)

X-37B - Visible Passes

Search period start: 18 September 2020 00:00
Search period end: 28 September 2020 00:00
Orbit: 386 x 387 km, 45.0° (Epoch: 15 September)

Date Brightness Start Highest point End Pass type
(mag) Time Alt. Az. Time Alt. Az. Time Alt. Az.
25 Sep 2.2 19:25:23 10° S 19:27:27 19° SE 19:27:27 19° SE visible
26 Sep 2.2 20:02:40 10° WSW 20:04:58 35° W 20:04:58 35° W visible
27 Sep 2.4 05:53:46 10° NNW 05:56:38 31° NE 05:59:29 10° ESE visible
27 Sep 0.6 19:04:02 10° SSW 19:07:09 58° SE 19:10:08 11° NE visible
